Regional Weather Roundup
Issued by NWS

Home | Current Version | Previous Version | Text Only | Print | Product List | Glossary Off
Versions: 1 2 3 4 5 6 7 8 9 10 11 12 13 14 15 16 17 18 19 20 21 22 23 24 25 26 27 28 29 30 31 32 33 34 35 36 37 38 39 40 41 42 43 44 45 46 47 48 49 50

012
ASUS44 KLIX 010011
RWRLA
LOUISIANA WEATHER ROUNDUP
NATIONAL WEATHER SERVICE NEW ORLEANS LA
700 PM CDT TUE MAR 31 2015

NOTE: "FAIR" INDICATES FEW OR NO CLOUDS BELOW 12,000 FEET WITH NO
      SIGNIFICANT WEATHER AND/OR OBSTRUCTIONS TO VISIBILITY.
      SKY/WX - SKY CONDITION AND SIGNIFICANT WEATHER.
      TMP - AIR TEMPERATURE.    DP   - DEWPOINT TEMPERATURE.
      RH  - RELATIVE HUMIDITY.  PRES - PRESSURE.
      HX  - HEAT INDEX.         WCI  - WIND CHILL INDEX.

*  THESE STATIONS ARE NOT NWS OR FAA STATIONS AND ARE NOT UNDER
   NWS QUALITY CONTROL.

LAZ040-048-061>063-065-066-069-010100-
SOUTHEAST LOUISIANA

CITY           SKY/WX    TMP DP  RH WIND       PRES   REMARKS
N.O. AUDUBON     N/A     76  67  74 MISG        N/A
6HR MIN TEMP:  75; 6HR MAX TEMP:  87;

N.O. INTL ARPT MOCLDY    76  59  55 SW14      30.02R
6HR MIN TEMP:  76; 6HR MAX TEMP:  82;

N.O. LAKEFRONT PTCLDY    78  60  53 SW17      30.02R
6HR MIN TEMP:  77; 6HR MAX TEMP:  82; 6HR PCP: TRACE;

SLIDELL        PTCLDY    77  60  55 SW7       30.00S
6HR MIN TEMP:  77; 6HR MAX TEMP:  82;

BATON ROUGE    CLEAR     75  59  57 SW15      30.00S
6HR MIN TEMP:  75; 6HR MAX TEMP:  83;

BOOTHVILLE     PTCLDY    75  68  78 SW13      30.05R
6HR MIN TEMP:  75; 6HR MAX TEMP:  78;

BELLE CHASSE   PTCLDY    74  62  66 SW9       30.02R
6HR MIN TEMP:  74; 6HR MAX TEMP:  81;

BOGALUSA*        N/A     80  57  45 SW10G18   30.00S
6HR MIN TEMP:  80; 6HR MAX TEMP:  84;

GALLIANO*      CLEAR     76  62  62 SW12G22   30.04S
6HR MIN TEMP:  76; 6HR MAX TEMP:  82;

NEW ROADS*     FAIR      76  56  50 SW7       30.00S
6HR MIN TEMP:  76; 6HR MAX TEMP:  81;

GONZALES*      FAIR      75  59  58 SW7       30.02R
6HR MIN TEMP:  75; 6HR MAX TEMP:  82;

HAMMOND*       CLEAR     79  57  47 SW9G16    30.02R
HOUMA*         PTCLDY    73  63  68 SW10      30.03F
PORT FOURCHON* PTCLDY    75  66  73 SW9G17    30.08S

$$

LAZ041-044-053-054-010100-
SOUTHWEST LOUISIANA

CITY           SKY/WX    TMP DP  RH WIND       PRES   REMARKS
LAKE CHARLES   PTCLDY    73  63  70 SW9       30.00F
6HR MIN TEMP:  73; 6HR MAX TEMP:  80;

LAFAYETTE      CLEAR     74  57  55 SW15      30.01S
6HR MIN TEMP:  74; 6HR MAX TEMP:  81; 6HR PCP: TRACE;

PATTERSON      MOCLDY    73  63  68 SW9       30.05S
6HR MIN TEMP:  73; 6HR MAX TEMP:  79;

SALT POINT       N/A     71  66  84 SW5       30.03S
6HR MIN TEMP:  71; 6HR MAX TEMP:  76;

NEW IBERIA     CLEAR     74  58  57 SW13      30.03S
6HR MIN TEMP:  74; 6HR MAX TEMP:  81; 6HR PCP: TRACE;

CHENAULT AIRPK NOT AVBL

$$

LAZ027-028-010100-
CENTRAL LOUISIANA

CITY           SKY/WX    TMP DP  RH WIND       PRES   REMARKS
FORT POLK      CLEAR     77  61  57 S10       29.96S HAZE
6HR MIN TEMP:  76; 6HR MAX TEMP:  82;

ALEXANDRIA INT CLEAR     79  59  50 SW10      29.94S
6HR MIN TEMP:  77; 6HR MAX TEMP:  82;

ALEXANDRIA     CLEAR     79  59  50 SW8       29.96S
6HR MIN TEMP:  78; 6HR MAX TEMP:  83;


$$

LAZ001-002-010100-
NORTHWEST LOUISIANA

CITY           SKY/WX    TMP DP  RH WIND       PRES   REMARKS
SHREVEPORT     PTCLDY    79  58  48 SW8       29.91F
6HR MIN TEMP:  72; 6HR MAX TEMP:  82;

BARKSDALE AFB  CLEAR     79  59  50 SW5       29.92S
6HR MIN TEMP:  73; 6HR MAX TEMP:  81;

DTN SHREVEPORT CLEAR     77  58  51 SW9       29.92S
6HR MIN TEMP:  71; 6HR MAX TEMP:  79;


$$

LAZ014-016-010100-
NORTHEAST LOUISIANA

CITY           SKY/WX    TMP DP  RH WIND       PRES   REMARKS
MONROE         MOCLDY    78  58  49 SW12      29.94R
6HR MIN TEMP:  77; 6HR MAX TEMP:  83;

TALLULAH       MOCLDY    78  57  48 S7        29.95S
6HR MIN TEMP:  74; 6HR MAX TEMP:  83;


$$




USA.gov is the U.S. government's official web portal to all federal, state and local government web resources and services.